When you browse on this site, cookies collect data to enhance your experience and personalize the content and advertising you see.
Visit our Privacy Policy to learn more. By continuing to use the site, you agree to this use of cookies and data.
  • In Hungary
  • List of Countries
  • For 7 days
  • Water Temperature
  • Weather Map
  • News
  • Weather Widgets
  • user-avatar
    Login

    Hourly Weather Zenica

    Today, 25 May, Monday

    Time Temperature Precipitation Wind Pressure Humidity
    00:00 +5°C° 0 mm 1 mps 683 mmHg 91%
    01:00 +5°C° 0 mm 1 mps 683 mmHg 90%
    02:00 +5°C° 0 mm 1 mps 683 mmHg 90%
    03:00 +5°C° 0 mm 1 mps 683 mmHg 90%
    04:00 +5°C° 0 mm 1 mps 683 mmHg 90%
    05:00 +6°C° 0 mm 1 mps 683 mmHg 84%
    06:00 +8°C° 0 mm 1 mps 684 mmHg 77%
    07:00 +9°C° 0 mm 2 mps 684 mmHg 70%
    08:00 +10°C° 0 mm 2 mps 684 mmHg 64%
    09:00 +12°C° 0 mm 3 mps 685 mmHg 57%
    10:00 +13°C° 0 mm 3 mps 685 mmHg 50%
    11:00 +13°C° 0.1 mm 3 mps 684 mmHg 50%
    12:00 +14°C° 0.1 mm 3 mps 684 mmHg 50%
    13:00 +14°C° 0.1 mm 3 mps 684 mmHg 50%
    14:00 +14°C° 0.4 mm 3 mps 683 mmHg 56%
    15:00 +13°C° 0.4 mm 3 mps 683 mmHg 63%
    16:00 +14°C° 0.4 mm 2 mps 682 mmHg 70%
    17:00 +12°C° 0.6 mm 2 mps 682 mmHg 77%
    18:00 +10°C° 0.6 mm 2 mps 682 mmHg 84%
    19:00 +9°C° 0.6 mm 1 mps 682 mmHg 92%
    20:00 +8°C° 0.3 mm 1 mps 682 mmHg 93%
    21:00 +8°C° 0.3 mm 1 mps 682 mmHg 94%
    22:00 +7°C° 0.3 mm 1 mps 682 mmHg 95%
    23:00 +7°C° 0.5 mm 1 mps 682 mmHg 96%

    Tomorrow, 26 May, Tuesday

    Time Temperature Precipitation Wind Pressure Humidity
    00:00 +7°C° 0.5 mm 1 mps 682 mmHg 96%
    01:00 +7°C° 0.5 mm 1 mps 682 mmHg 96%
    02:00 +6°C° 0.2 mm 2 mps 682 mmHg 96%
    03:00 +5°C° 0.2 mm 2 mps 682 mmHg 96%
    04:00 +5°C° 0.2 mm 2 mps 681 mmHg 96%
    05:00 +5°C° 0.1 mm 2 mps 682 mmHg 96%
    06:00 +4°C° 0.1 mm 3 mps 682 mmHg 95%
    07:00 +5°C° 0.1 mm 3 mps 682 mmHg 94%
    08:00 +5°C° 0.5 mm 3 mps 682 mmHg 94%
    09:00 +5°C° 0.5 mm 3 mps 682 mmHg 94%
    10:00 +5°C° 0.5 mm 4 mps 682 mmHg 94%
    11:00 +7°C° 0.3 mm 3 mps 682 mmHg 93%
    12:00 +7°C° 0.3 mm 3 mps 682 mmHg 92%
    13:00 +8°C° 0.3 mm 3 mps 682 mmHg 91%
    14:00 +8°C° 0.5 mm 3 mps 682 mmHg 90%
    15:00 +9°C° 0.5 mm 3 mps 682 mmHg 89%
    16:00 +9°C° 0.5 mm 3 mps 682 mmHg 88%
    17:00 +8°C° 0.3 mm 3 mps 682 mmHg 90%
    18:00 +8°C° 0.3 mm 3 mps 681 mmHg 93%
    19:00 +7°C° 0.3 mm 2 mps 681 mmHg 96%
    20:00 +7°C° 0.2 mm 2 mps 681 mmHg 96%
    21:00 +6°C° 0.2 mm 2 mps 682 mmHg 97%
    22:00 +6°C° 0.2 mm 2 mps 682 mmHg 97%
    23:00 +6°C° 0.1 mm 2 mps 682 mmHg 97%

    Day after tomorrow, 27 May, Wednesday

    Time Temperature Precipitation Wind Pressure Humidity
    00:00 +6°C° 0.1 mm 2 mps 682 mmHg 97%
    01:00 +6°C° 0.1 mm 2 mps 682 mmHg 98%
    02:00 +6°C° 0.1 mm 2 mps 682 mmHg 98%
    03:00 +6°C° 0.1 mm 2 mps 682 mmHg 97%
    04:00 +6°C° 0.1 mm 2 mps 682 mmHg 97%
    05:00 +7°C° 0.1 mm 2 mps 682 mmHg 96%
    06:00 +7°C° 0.1 mm 2 mps 682 mmHg 95%
    07:00 +8°C° 0.1 mm 3 mps 683 mmHg 93%
    08:00 +9°C° 0.2 mm 3 mps 683 mmHg 89%
    09:00 +10°C° 0.2 mm 3 mps 683 mmHg 85%
    10:00 +11°C° 0.2 mm 3 mps 684 mmHg 80%
    11:00 +11°C° 0.3 mm 3 mps 684 mmHg 77%
    12:00 +12°C° 0.3 mm 3 mps 684 mmHg 73%
    13:00 +13°C° 0.3 mm 3 mps 684 mmHg 70%
    14:00 +13°C° 0.3 mm 3 mps 683 mmHg 71%
    15:00 +13°C° 0.3 mm 3 mps 683 mmHg 73%
    16:00 +12°C° 0.3 mm 3 mps 683 mmHg 74%
    17:00 +11°C° 0.1 mm 3 mps 683 mmHg 80%
    18:00 +10°C° 0.1 mm 2 mps 682 mmHg 87%
    19:00 +9°C° 0.1 mm 2 mps 682 mmHg 93%
    20:00 +8°C° 0 mm 2 mps 682 mmHg 94%
    21:00 +8°C° 0 mm 1 mps 682 mmHg 95%
    22:00 +7°C° 0 mm 1 mps 682 mmHg 97%
    23:00 +7°C° 0 mm 1 mps 682 mmHg 97%

    28 May, Thursday

    Time Temperature Precipitation Wind Pressure Humidity
    00:00 +7°C° 0 mm 1 mps 682 mmHg 97%
    01:00 +7°C° 0 mm 1 mps 681 mmHg 97%
    02:00 +7°C° 0 mm 1 mps 681 mmHg 97%
    03:00 +7°C° 0 mm 1 mps 681 mmHg 97%
    04:00 +7°C° 0 mm 1 mps 681 mmHg 97%
    05:00 +8°C° 0 mm 1 mps 681 mmHg 95%
    06:00 +9°C° 0 mm 1 mps 682 mmHg 93%
    07:00 +10°C° 0 mm 1 mps 682 mmHg 91%
    08:00 +12°C° 0.1 mm 2 mps 682 mmHg 82%
    09:00 +13°C° 0.1 mm 2 mps 682 mmHg 72%
    10:00 +14°C° 0.1 mm 3 mps 682 mmHg 63%
    11:00 +14°C° 0.1 mm 3 mps 682 mmHg 59%
    12:00 +16°C° 0.1 mm 3 mps 682 mmHg 55%
    13:00 +17°C° 0.1 mm 3 mps 682 mmHg 51%
    14:00 +16°C° 0.1 mm 3 mps 681 mmHg 53%
    15:00 +16°C° 0.1 mm 3 mps 681 mmHg 56%
    16:00 +16°C° 0.1 mm 3 mps 681 mmHg 58%
    17:00 +14°C° 0.2 mm 2 mps 680 mmHg 69%
    18:00 +12°C° 0.2 mm 2 mps 680 mmHg 79%
    19:00 +10°C° 0.2 mm 1 mps 679 mmHg 90%
    20:00 +10°C° 0 mm 1 mps 679 mmHg 91%
    21:00 +9°C° 0 mm 1 mps 679 mmHg 93%
    22:00 +8°C° 0 mm 1 mps 679 mmHg 94%
    23:00 +7°C° 0 mm 1 mps 679 mmHg 95%

    29 May, Friday

    Time Temperature Precipitation Wind Pressure Humidity
    00:00 +7°C° 0 mm 1 mps 679 mmHg 95%
    01:00 +7°C° 0 mm 1 mps 679 mmHg 96%
    02:00 +7°C° 0 mm 1 mps 679 mmHg 96%
    03:00 +7°C° 0 mm 1 mps 679 mmHg 96%
    04:00 +7°C° 0 mm 1 mps 679 mmHg 97%
    05:00 +8°C° 0 mm 1 mps 679 mmHg 94%
    06:00 +9°C° 0 mm 1 mps 679 mmHg 90%
    07:00 +10°C° 0 mm 1 mps 680 mmHg 87%
    08:00 +10°C° 0 mm 2 mps 680 mmHg 77%
    09:00 +13°C° 0 mm 2 mps 680 mmHg 66%
    10:00 +14°C° 0 mm 2 mps 680 mmHg 56%
    11:00 +15°C° 0 mm 2 mps 680 mmHg 53%
    12:00 +15°C° 0 mm 2 mps 680 mmHg 50%
    13:00 +16°C° 0 mm 2 mps 680 mmHg 48%
    14:00 +16°C° 0 mm 2 mps 679 mmHg 49%
    15:00 +16°C° 0 mm 2 mps 679 mmHg 49%
    16:00 +15°C° 0 mm 2 mps 678 mmHg 50%
    17:00 +14°C° 0 mm 2 mps 678 mmHg 59%
    18:00 +12°C° 0 mm 1 mps 677 mmHg 69%
    19:00 +10°C° 0 mm 1 mps 677 mmHg 78%
    20:00 +9°C° 0 mm 1 mps 677 mmHg 81%
    21:00 +8°C° 0 mm 1 mps 677 mmHg 85%
    22:00 +5°C° 0 mm 0 mps 677 mmHg 88%
    23:00 +6°C° 0 mm 0 mps 677 mmHg 86%

    30 May, Saturday

    Time Temperature Precipitation Wind Pressure Humidity
    00:00 +6°C° 0 mm 0 mps 677 mmHg 84%
    01:00 +7°C° 0 mm 0 mps 677 mmHg 81%
    02:00 +7°C° 0 mm 0 mps 677 mmHg 82%
    03:00 +7°C° 0 mm 0 mps 677 mmHg 83%
    04:00 +7°C° 0 mm 0 mps 677 mmHg 83%
    05:00 +8°C° 0.2 mm 1 mps 677 mmHg 85%
    06:00 +8°C° 0.2 mm 1 mps 677 mmHg 87%
    07:00 +8°C° 0.2 mm 1 mps 678 mmHg 88%
    08:00 +10°C° 0.1 mm 1 mps 678 mmHg 81%
    09:00 +12°C° 0.1 mm 1 mps 679 mmHg 73%
    10:00 +13°C° 0.1 mm 0 mps 679 mmHg 66%
    11:00 +14°C° 0.4 mm 1 mps 679 mmHg 72%
    12:00 +13°C° 0.4 mm 1 mps 679 mmHg 77%
    13:00 +12°C° 0.4 mm 1 mps 679 mmHg 82%
    14:00 +12°C° 0.6 mm 1 mps 678 mmHg 86%
    15:00 +11°C° 0.6 mm 1 mps 678 mmHg 90%
    16:00 +10°C° 0.6 mm 1 mps 678 mmHg 94%
    17:00 +10°C° 0.4 mm 1 mps 678 mmHg 95%
    18:00 +9°C° 0.4 mm 1 mps 678 mmHg 96%
    19:00 +9°C° 0.4 mm 1 mps 678 mmHg 97%
    20:00 +8°C° 0.2 mm 1 mps 678 mmHg 97%
    21:00 +8°C° 0.2 mm 1 mps 678 mmHg 97%
    22:00 +6°C° 0.2 mm 0 mps 678 mmHg 97%
    23:00 +5°C° 0 mm 0 mps 678 mmHg 96%
    Show more